Tracking 22124 objects as of 23-Jan-2021
HD Live streaming from Space Station
objects crossing your sky now

QUETZAL-1

Track QUETZAL-1 now!
10-day predictions
QUETZAL-1 is classified as:


NORAD ID: 45598
Int'l Code: 1998-067RL
Perigee: 408.3 km
Apogee: 411.9 km
Inclination: 51.6 °
Period: 92.6 minutes
Semi major axis: 6781 km
RCS: Unknown
Launch date: November 20, 1998
Source: (TBD)
Launch site: TYURATAM MISSILE AND SPACE COMPLEX (TTMTR)

Uplink (MHz):
Downlink (MHz): 437.200
Beacon (MHz):
Mode: 4800bps GMSK
Call sign:
Status: Active

aabbcc
Your satellite tracking list
Your tracking list is empty




NASA's NSSDC Master Catalog

Two Line Element Set (TLE):
1 45598U 98067RL  21022.88775517  .00010340  00000-0  15972-3 0  9991
2 45598  51.6420 336.5049 0002675 146.6574 213.4586 15.54731637 41875
Source of the keplerian elements: AFSPC